Content
SEND FEEDBACK

Daily
Averages
Monthly
Summary
Canada

QUEBEC CITY, QUEBEC


Home > North America > Canada > Quebec
Elevation: 72 meters     Latitude: 46 48N     Longitude: 071 23W

WEATHER
 
SELECT A DAY
Number of Records: 197,121;   Date Range: 6/30/96 - 11/25/14
 
SHARE

PRINT THIS DATA

[ ← Previous Day ]
WEATHER ALMANAC - 8 MARCH, 2013
[ Next Day → ]
[ °F ]   °C
Weather ElementAverageHighLow
Temperature-0.7 °C2 °C (3:00 pm)-2.2 °C (7:00 am)
Dewpoint-4 °C-2 °C (5:00 pm)-6 °C (3:00 am)
Humidity76.9 %93 % (9:00 pm)59 % (1:00 pm)
Barometer1027.4 hPa1029.1 hPa (8:00 pm)1025.7 hPa (1:00 am)
Wind Speed20.6 km/h33.3 km/h (4:00 am)
Wind Gust53.8 km/h (10:00 am)
Weather ElementAverage
Visibility37 km
Wind DirectionENE (67.7 °)

Weather ElementTotal
Precipitation---
Heating Degree Days18.4 (Base 18.3)
Averaged from 31 records on 8 March, 2013
WEATHER CONDITIONS BREAKOUT
WIND DIRECTION BREAKOUT
WEATHER BY HOUR - 8 MARCH, 2013
[ °F ]   °C
Local TimeTemperatureDewpointHumidityBarometerVisibilityWind DirectionWind SpeedGust SpeedPrecipitationEventsConditions
1:00 AM-1.1 °C-5.6 °C63 %1025.7 hPaENE (60°)11.1 km/h
1:00 AM-1 °C-5 °C75 %1026.1 hPa24.1 kmENE (60°)25.9 km/hMostly Cloudy
2:00 AM-2 °C-5 °C80 %1026.1 hPa24.1 kmENE (70°)24.1 km/h33.3 km/hMostly Cloudy
3:00 AM-2 °C-6 °C74 %1026.1 hPa24.1 kmENE (70°)25.9 km/h35.2 km/hMostly Cloudy
4:00 AM-1.7 °C-5.6 °C65 %1025.7 hPaENE (60°)18.5 km/h
4:00 AM-2 °C-6 °C74 %1026.1 hPa24.1 kmENE (60°)33.3 km/hMostly Cloudy
5:00 AM-2 °C-5 °C80 %1026.1 hPa24.1 kmENE (60°)29.6 km/h51.8 km/hMostly Cloudy
6:00 AM-2 °C-6 °C74 %1026.8 hPa40.2 kmENE (60°)33.3 km/h46.3 km/hMostly Cloudy
7:00 AM-2.2 °C-5.6 °C71 %1027.1 hPaENE (70°)14.8 km/h
7:00 AM-2 °C-5 °C80 %1027.1 hPa40.2 kmENE (60°)22.2 km/h33.3 km/hMostly Cloudy
8:00 AM-1 °C-5 °C75 %1027.4 hPa48.3 kmENE (70°)27.8 km/hMostly Cloudy
9:00 AM-1 °C-5 °C75 %1027.8 hPa48.3 kmENE (70°)29.6 km/h48.1 km/hMostly Cloudy
10:00 AM0 °C-4.4 °C62 %1027.4 hPaEast (80°)24.1 km/h
10:00 AM0 °C-4 °C75 %1028.1 hPa48.3 kmENE (70°)33.3 km/h53.8 km/hMostly Cloudy
11:00 AM0 °C-4 °C75 %1028.1 hPa48.3 kmENE (70°)25.9 km/h46.3 km/hMostly Cloudy
12:00 PM0 °C-3 °C80 %1027.8 hPa48.3 kmENE (70°)20.4 km/h33.3 km/hMostly Cloudy
1:00 PM1.7 °C-3.3 °C59 %1026.8 hPaENE (70°)16.7 km/h
1:00 PM1 °C-3 °C75 %1027.4 hPa48.3 kmENE (70°)16.7 km/h29.6 km/hMostly Cloudy
2:00 PM1 °C-3 °C75 %1027.4 hPa48.3 kmENE (60°)24.1 km/hMostly Cloudy
3:00 PM2 °C-3 °C70 %1027.4 hPa48.3 kmENE (70°)29.6 km/hMostly Cloudy
4:00 PM1.1 °C-2.8 °C67 %1026.8 hPaEast (80°)14.8 km/h
4:00 PM1 °C-3 °C75 %1027.4 hPa48.3 kmEast (80°)20.4 km/h29.6 km/hMostly Cloudy
5:00 PM0 °C-2 °C87 %1027.8 hPa48.3 kmEast (80°)14.8 km/hMostly Cloudy
6:00 PM0 °C-3 °C80 %1028.4 hPa48.3 kmENE (70°)18.5 km/hMostly Cloudy
7:00 PM-0.6 °C-2.8 °C81 %1028.4 hPaENE (70°)7.4 km/h
7:00 PM-1 °C-3 °C86 %1028.8 hPa24.1 kmENE (60°)18.5 km/hMostly Cloudy
8:00 PM-1 °C-3 °C86 %1029.1 hPa24.1 kmENE (60°)18.5 km/hPartly Cloudy
9:00 PM-2 °C-3 °C93 %1029.1 hPa24.1 kmEast (80°)11.1 km/hPartly Cloudy
10:00 PM-1.7 °C-2.8 °C87 %1028.8 hPaENE (70°)5.6 km/h
10:00 PM-2 °C-3 °C93 %1029.1 hPa24.1 kmENE (70°)11.1 km/hClear
11:00 PM-2 °C-3 °C93 %1028.8 hPa24.1 kmNE (50°)9.3 km/hPartly Cloudy
Hourly data recorded from CYQB, located 0 kilometers away from Quebec City, Quebec







STORIES FROM OUR PARTNERS